Weather History for KMBS - September, 2012

Change the Weather History Date:

Saturday, September 15, 2012

  Actual Average Record
Temperature  
Mean Temperature 58 °F 62 °F  
Max Temperature 71 °F 73 °F - ()
Min Temperature 45 °F 51 °F - ()
Degree Days  
Heating Degree Days 8    
Month to date heating degree days  
Since 1 July heating degree days  
Cooling Degree Days 0    
Month to date cooling degree days  
Year to date cooling degree days  
Growing Degree Days 8 (Base 50)    
Moisture  
Dew Point 46 °F    
Average Humidity 66    
Maximum Humidity 93    
Minimum Humidity 42    
Precipitation  
Precipitation 0.01 in 0.14 in - ()
Month to date precipitation 1.91  
Year to date precipitation 22.43  
Snow  
Snow 0.00 in - - ()
Month to date snowfall  
Since 1 July snowfall  
Since 1 September snowfall  
Snow Depth -    
Sea Level Pressure  
Sea Level Pressure 30.27 in    
Wind  
Wind Speed 4 mph (West)    
Max Wind Speed 9 mph    
Max Gust Speed -    
Visibility 10 miles    
Events      
T = Trace of Precipitation, MM = Missing Value Source: NWS Daily Summary

Daily Weather History Graph

Daily Weather History Graph

Search for Another Location

Airport or City:

Trip Planner

Search our weather history database for the weather conditions in past years. The results will help you decide how hot, cold, wet, or windy it might be!

Date:

Astronomy

Sep. 15, 2012 Rise Set
Actual Time 7:16 AM EDT 7:45 PM EDT
Civil Twilight 6:47 AM EDT 8:14 PM EDT
Nautical Twilight 6:13 AM EDT 8:48 PM EDT
Astronomical Twilight 5:38 AM EDT 9:23 PM EDT
Moon 6:46 AM EDT (9/15) 7:13 PM EDT (9/15)
Length of Visible Light 13h 26m
Length of Day
12h 29m
Waning Crescent, 0% of the Moon is Illuminated
Sep 15
Waning Crescent
Sep 15
New
Sep 22
First Quarter
Sep 29
Full
Oct 8
Last Quarter

Hourly Weather History & Observations

Time (EDT) Temp. Windchill Dew Point Humidity Pressure Visibility Wind Dir Wind Speed Gust Speed Precip Events Conditions
12:53 AM 52.0 °F - 43.0 °F 71% 30.30 in 10.0 mi WNW 3.5 mph - N/A   Clear
1:53 AM 50.0 °F - 43.0 °F 77% 30.30 in 10.0 mi North 4.6 mph - 0.01 in   Clear
2:53 AM 51.1 °F - 43.0 °F 74% 30.30 in 10.0 mi Calm Calm - N/A   Clear
3:53 AM 48.9 °F - 43.0 °F 80% 30.30 in 10.0 mi NNW 5.8 mph - N/A   Clear
4:53 AM 46.9 °F - 43.0 °F 86% 30.31 in 10.0 mi WNW 3.5 mph - N/A   Clear
5:53 AM 48.0 °F - 43.0 °F 83% 30.32 in 10.0 mi Calm Calm - N/A   Clear
6:53 AM 45.0 °F 42.6 °F 42.1 °F 90% 30.33 in 10.0 mi West 4.6 mph - N/A   Clear
7:53 AM 46.0 °F 43.9 °F 44.1 °F 93% 30.35 in 10.0 mi West 4.6 mph - N/A   Mostly Cloudy
8:53 AM 51.1 °F - 46.9 °F 86% 30.35 in 10.0 mi WNW 3.5 mph - N/A   Clear
9:53 AM 57.0 °F - 48.9 °F 74% 30.35 in 10.0 mi Calm Calm - N/A   Clear
10:53 AM 63.0 °F - 48.9 °F 60% 30.34 in 10.0 mi Calm Calm - N/A   Clear
11:53 AM 64.0 °F - 48.0 °F 56% 30.32 in 10.0 mi WNW 3.5 mph - N/A   Clear
12:53 PM 66.0 °F - 48.0 °F 52% 30.30 in 10.0 mi Calm Calm - N/A   Scattered Clouds
1:53 PM 66.9 °F - 46.9 °F 49% 30.28 in 10.0 mi Variable 5.8 mph - N/A   Mostly Cloudy
2:53 PM 70.0 °F - 46.9 °F 44% 30.25 in 10.0 mi WNW 9.2 mph - N/A   Mostly Cloudy
3:53 PM 68.0 °F - 46.0 °F 45% 30.24 in 10.0 mi WNW 6.9 mph - N/A   Scattered Clouds
4:53 PM 70.0 °F - 46.0 °F 42% 30.22 in 10.0 mi Variable 3.5 mph - N/A   Partly Cloudy
5:53 PM 70.0 °F - 46.0 °F 42% 30.20 in 10.0 mi Calm Calm - N/A   Clear
6:53 PM 69.1 °F - 46.0 °F 44% 30.19 in 10.0 mi SW 3.5 mph - N/A   Clear
7:53 PM 62.1 °F - 48.9 °F 62% 30.17 in 10.0 mi South 4.6 mph - N/A   Clear
8:53 PM 60.1 °F - 48.0 °F 64% 30.17 in 10.0 mi South 6.9 mph - N/A   Clear
9:53 PM 57.9 °F - 48.0 °F 70% 30.17 in 10.0 mi South 6.9 mph - N/A   Clear
10:53 PM 55.9 °F - 48.0 °F 75% 30.16 in 10.0 mi South 5.8 mph - N/A   Clear
11:53 PM 55.9 °F - 46.9 °F 72% 30.16 in 10.0 mi SSW 5.8 mph - N/A   Clear